Amateur Radio Satellites - All Passes

Search period start: 22 May 2013 12:05
Search period end: 23 May 2013 12:05
Location: Oso Ridge, 35.0450°N, 108.0864°W

Satellite Date Start Highest point End Downlink Frequencies (MHz)
Time Altitude Azimuth
HO-68 22 May 12:21:35 12:26:47 22° 299° (WNW) 12:32:00 435.675 MHz FM
UOSAT-12 22 May 12:38:57 12:43:04 34° 305° (NW) 12:47:13 437.025 FM, 437.400 FM
MaSat-1 22 May 12:45:10 12:47:54 31° 253° (WSW) 12:50:17 437.345 MHz
PANSAT 22 May 12:48:52 12:52:10 26° 171° (S) 12:55:28 not established
Oscar 16 22 May 12:53:08 12:55:40 14° 64° (ENE) 12:58:12 437.025 USB, Beacon 2401.1428
JAS-2 22 May 12:55:02 12:57:56 13° 303° (WNW) 13:00:42 435.800 - 435.900 CW/SSB, 435.910 FM
OPAL 22 May 12:59:34 13:02:48 17° 297° (WNW) 13:05:59 ?
AO-27 22 May 13:02:02 13:03:51 12° 62° (ENE) 13:05:40 436.795 MHz FM
ITAMSAT 1 22 May 13:08:06 13:10:32 14° 63° (ENE) 13:12:58 435.822 SSB
Uribyol 2 22 May 13:46:39 13:51:17 34° 70° (ENE) 13:55:56 436.500 FM
Oscar 19 22 May 13:50:17 13:55:10 43° 72° (ENE) 14:00:04 437.125 CW, 437.150 USB
AO-Echo 22 May 13:59:54 14:01:55 13° 65° (ENE) 14:03:56 ?
PANSAT 22 May 14:28:42 14:32:08 30° 184° (S) 14:35:34 not established
Oscar 16 22 May 14:29:17 14:34:25 65° 258° (WSW) 14:39:37 437.025 USB, Beacon 2401.1428
AO-27 22 May 14:37:32 14:42:42 75° 257° (WSW) 14:47:54 436.795 MHz FM
ITAMSAT 1 22 May 14:44:19 14:49:26 65° 258° (WSW) 14:54:36 435.822 SSB
Gurwin Techsat 1B 22 May 15:01:48 15:05:37 21° 66° (ENE) 15:09:27 435.225 FM
Saudisat 1A 22 May 15:03:39 15:08:01 45° 57° (ENE) 15:12:16 436.775 MHz
AO-7 22 May 15:14:31 15:17:41 13° 51° (NE) 15:20:51 29.400 - 29.500 MHz
Uribyol 2 22 May 15:26:40 15:30:47 24° 264° (W) 15:34:55 436.500 FM
RS-15 22 May 15:27:38 15:37:36 31° 104° (ESE) 15:47:13 29.354 - 29.394 USB, Beacon 29.352 USB
Uosat F 22 May 15:27:54 15:32:38 45° 72° (ENE) 15:37:23 435.120 FM
Oscar 19 22 May 15:31:02 15:34:40 19° 266° (W) 15:38:19 437.125 CW, 437.150 USB
AO-Echo 22 May 15:35:23 15:40:13 60° 259° (W) 15:44:57 ?
PANSAT 22 May 16:09:21 16:12:02 18° 196° (SSW) 16:14:42 not established
TMSAT-1 22 May 16:18:12 16:23:28 75° 75° (ENE) 16:28:46 436.925 FM
PCSat 22 May 16:33:27 16:38:04 28° 55° (NE) 16:42:39 145.825 MHz
Gurwin Techsat 1B 22 May 16:40:14 16:45:15 43° 261° (W) 16:50:18 435.225 FM
Saudisat 1A 22 May 16:44:39 16:47:17 15° 252° (WSW) 16:49:53 436.775 MHz
AO-7 22 May 17:00:45 17:08:55 68° 69° (ENE) 17:17:09 29.400 - 29.500 MHz
Sapphire 22 May 17:05:59 17:11:15 49° 60° (ENE) 17:16:29 437.095 MHz 1200 baud AX-25 AFSK
Uosat F 22 May 17:08:26 17:11:37 17° 266° (W) 17:14:49 435.120 FM
RS-15 22 May 17:37:08 17:49:10 68° 302° (WNW) 18:00:45 29.354 - 29.394 USB, Beacon 29.352 USB
TMSAT-1 22 May 18:02:52 18:03:53 11° 270° (W) 18:04:55 436.925 FM
SO-50 22 May 18:09:30 18:13:57 54° 58° (ENE) 18:18:20 436.795 FM
PCSat 22 May 18:16:36 18:21:31 36° 251° (WSW) 18:26:24 145.825 MHz
JAS-1B 22 May 18:29:16 18:34:54 19° 62° (ENE) 18:40:04 435.800 - 435.900 CW/SSB
STRAND 1 22 May 18:33:20 18:36:45 18° 94° (E) 18:40:09 ?
Hamsat 22 May 18:44:53 18:48:05 22° 70° (ENE) 18:51:20 145.90 MHz
Sapphire 22 May 18:50:34 18:54:15 19° 255° (WSW) 18:57:55 437.095 MHz 1200 baud AX-25 AFSK
AO-7 22 May 18:56:06 19:02:12 23° 265° (W) 19:08:22 29.400 - 29.500 MHz
AO-40 22 May 19:08:24 03:52:07 53° 178° (S) 10:08:59 Beacon 2401.320
SO-67 22 May 19:29:23 19:31:58 19° 71° (ENE) 19:34:32 435.3500 MHz FM
SO-50 22 May 19:52:12 19:54:02 12° 253° (WSW) 19:55:52 436.795 FM
RS-15 22 May 19:55:58 20:04:13 21° 328° (NNW) 20:12:16 29.354 - 29.394 USB, Beacon 29.352 USB
STRAND 1 22 May 20:11:14 20:16:07 45° 288° (WNW) 20:21:00 ?
JAS-1B 22 May 20:15:09 20:24:40 90° 255° (WSW) 20:32:51 435.800 - 435.900 CW/SSB
Hamsat 22 May 20:20:32 20:24:01 25° 264° (W) 20:27:32 145.90 MHz
HO-68 22 May 20:58:04 21:04:20 35° 65° (ENE) 21:10:36 435.675 MHz FM
SO-67 22 May 21:02:38 21:05:17 20° 265° (W) 21:07:57 435.3500 MHz FM
UOSAT-12 22 May 21:11:10 21:15:47 80° 60° (ENE) 21:20:23 437.025 FM, 437.400 FM
JAS-2 22 May 21:14:00 21:20:41 34° 66° (ENE) 21:27:29 435.800 - 435.900 CW/SSB, 435.910 FM
KITSAT 1 22 May 21:57:39 22:03:27 22° 103° (ESE) 22:09:15 435.175 FM
JAS-1B 22 May 22:10:08 22:15:34 17° 267° (W) 22:20:41 435.800 - 435.900 CW/SSB
Oscar 11 22 May 22:17:32 22:21:50 81° 77° (ENE) 22:26:10 145.825 FM, Beacon 2401.500 USB
RS-15 22 May 22:19:26 22:23:25 12° 6° (N) 22:27:20 29.354 - 29.394 USB, Beacon 29.352 USB
OPAL 22 May 22:31:04 22:36:11 61° 72° (ENE) 22:41:17 ?
HO-68 22 May 22:45:16 22:51:51 40° 261° (W) 22:58:28 435.675 MHz FM
JAS-2 22 May 22:58:02 23:05:19 48° 262° (W) 23:12:53 435.800 - 435.900 CW/SSB, 435.910 FM
KITSAT 1 22 May 23:50:04 23:58:04 69° 300° (WNW) 00:06:09 435.175 FM
OPAL 23 May 00:12:52 00:15:23 14° 266° (W) 00:17:55 ?
RS-15 23 May 00:32:01 00:41:25 30° 41° (NE) 00:50:32 29.354 - 29.394 USB, Beacon 29.352 USB
MaSat-1 23 May 01:29:17 01:36:07 44° 108° (ESE) 01:41:58 437.345 MHz
KITSAT 1 23 May 01:50:32 01:55:03 16° 321° (NW) 01:59:36 435.175 FM
Uribyol 2 23 May 02:03:49 02:07:01 16° 93° (E) 02:10:11 436.500 FM
Oscar 19 23 May 02:06:10 02:09:54 20° 94° (E) 02:13:35 437.125 CW, 437.150 USB
RS-15 23 May 02:43:54 02:54:56 78° 245° (WSW) 03:05:46 29.354 - 29.394 USB, Beacon 29.352 USB
Oscar 16 23 May 02:44:29 02:49:36 60° 101° (E) 02:54:40 437.025 USB, Beacon 2401.1428
ISS 23 May 02:49:45 02:53:03 78° 318° (NW) 02:56:22 145.800 FM
AO-27 23 May 02:54:02 02:59:09 52° 100° (E) 03:04:14 436.795 MHz FM
ITAMSAT 1 23 May 03:00:35 03:05:45 60° 101° (E) 03:10:54 435.822 SSB
MaSat-1 23 May 03:12:08 03:18:18 32° 298° (WNW) 03:23:35 437.345 MHz
Uosat F 23 May 03:39:58 03:43:25 18° 94° (E) 03:46:51 435.120 FM
Uribyol 2 23 May 03:41:41 03:46:45 51° 287° (WNW) 03:51:47 436.500 FM
Oscar 19 23 May 03:44:33 03:49:22 41° 289° (WNW) 03:54:08 437.125 CW, 437.150 USB
AO-Echo 23 May 03:45:43 03:50:24 55° 101° (E) 03:55:11 ?
Oscar 16 23 May 04:25:39 04:28:25 15° 296° (WNW) 04:31:10 437.025 USB, Beacon 2401.1428
ISS 23 May 04:28:59 04:30:15 12° 335° (NNW) 04:31:31 145.800 FM
AO-27 23 May 04:34:57 04:38:12 17° 295° (WNW) 04:41:28 436.795 MHz FM
TMSAT-1 23 May 04:37:44 04:42:41 39° 98° (E) 04:47:37 436.925 FM
ITAMSAT 1 23 May 04:41:51 04:44:43 15° 296° (WNW) 04:47:35 435.822 SSB
Gurwin Techsat 1B 23 May 04:59:30 05:04:50 82° 284° (WNW) 05:10:09 435.225 FM
RS-15 23 May 05:00:43 05:05:18 14° 262° (W) 05:09:54 29.354 - 29.394 USB, Beacon 29.352 USB
AO-7 23 May 05:06:56 05:13:43 27° 96° (E) 05:20:28 29.400 - 29.500 MHz
Saudisat 1A 23 May 05:08:20 05:12:07 26° 111° (ESE) 05:15:56 436.775 MHz
Uosat F 23 May 05:17:38 05:22:22 42° 288° (WNW) 05:27:04 435.120 FM
AO-Echo 23 May 05:26:24 05:28:45 14° 294° (WNW) 05:31:07 ?
STRAND 1 23 May 05:46:36 05:50:08 19° 66° (ENE) 05:53:40 ?
TMSAT-1 23 May 06:18:18 06:22:20 23° 293° (WNW) 06:26:22 436.925 FM
Saudisat 1A 23 May 06:47:44 06:51:42 29° 307° (NW) 06:55:44 436.775 MHz
AO-7 23 May 06:58:40 07:06:49 59° 292° (WNW) 07:14:57 29.400 - 29.500 MHz
PCSat 23 May 07:11:38 07:16:46 47° 111° (ESE) 07:21:57 145.825 MHz
STRAND 1 23 May 07:24:09 07:28:58 43° 261° (W) 07:33:49 ?
Sapphire 23 May 07:44:19 07:49:43 90° 116° (ESE) 07:55:10 437.095 MHz 1200 baud AX-25 AFSK
KITSAT 1 23 May 07:47:14 07:54:32 35° 52° (NE) 08:01:48 435.175 FM
JAS-1B 23 May 08:06:52 08:11:32 24° 95° (E) 08:16:03 435.800 - 435.900 CW/SSB
Hamsat 23 May 08:09:20 08:13:42 72° 101° (E) 08:18:04 145.90 MHz
SO-50 23 May 08:21:40 08:26:09 40° 114° (ESE) 08:30:37 436.795 FM
SO-67 23 May 08:31:45 08:35:07 37° 98° (E) 08:38:27 435.3500 MHz FM
AO-7 23 May 08:56:14 08:57:51 11° 311° (NW) 08:59:28 29.400 - 29.500 MHz
PCSat 23 May 08:56:16 09:00:25 22° 307° (NW) 09:04:35 145.825 MHz
ISS 23 May 09:21:21 09:24:19 28° 35° (NE) 09:27:17 145.800 FM
Sapphire 23 May 09:31:33 09:33:53 13° 313° (NW) 09:36:13 437.095 MHz 1200 baud AX-25 AFSK
KITSAT 1 23 May 09:42:22 09:50:06 50° 250° (WSW) 09:57:48 435.175 FM
JAS-1B 23 May 09:57:03 10:02:20 35° 292° (WNW) 10:07:23 435.800 - 435.900 CW/SSB
SO-50 23 May 10:03:13 10:06:54 22° 309° (NW) 10:10:35 436.795 FM
SO-67 23 May 10:07:29 10:08:11 10° 292° (WNW) 10:08:52 435.3500 MHz FM
Oscar 11 23 May 10:09:45 10:12:53 19° 95° (E) 10:15:59 145.825 FM, Beacon 2401.500 USB
JAS-2 23 May 10:13:03 10:18:55 32° 94° (E) 10:24:09 435.800 - 435.900 CW/SSB, 435.910 FM
HO-68 23 May 10:15:54 10:22:47 48° 101° (E) 10:29:38 435.675 MHz FM
OPAL 23 May 10:45:28 10:49:07 20° 97° (E) 10:52:43 ?
PANSAT 23 May 10:47:56 10:49:57 14° 160° (SSE) 10:51:58 not established
ISS 23 May 10:58:10 11:00:56 24° 230° (SW) 11:03:42 145.800 FM
UOSAT-12 23 May 11:19:37 11:23:58 52° 115° (ESE) 11:28:22 437.025 FM, 437.400 FM
Oscar 11 23 May 11:45:16 11:49:07 31° 288° (WNW) 11:52:57 145.825 FM, Beacon 2401.500 USB

Developed and maintained by Chris Peat, Heavens-Above GmbH. Please read the updated FAQ before sending e-mail. Imprint. DLR
